User: anonymous
Location: Bismarck
(46.7731°N, 100.8200°W)
Time: 10:57:38
(UTC-05:00)
Language:

Landsat 7 - Orbit

View from above orbital plane
View from above orbital plane
View from above satellite
View from above satellite

Ground track
Ground track

The orbit data is extracted from the following two-line orbital elements,

1 25682U 99020A   14206.19958604  .00000128  00000-0  38417-4 0  4520
2 25682 098.2136 275.3045 0000987 046.5107 313.6190 14.57104197812527
Epoch (UTC): 25 July 2014 04:47:24
Eccentricity: 0.0000987
inclination: 98.2136°
perigee height: 702 km
apogee height: 703 km
right ascension of ascending node: 275.3045°
argument of perigee: 46.5107°
revolutions per day: 14.57104197
mean anomaly at epoch: 313.6190°
orbit number at epoch: 81252

The dashed part of the orbit path shows where the satellite is in the earth's shadow,  

DLR